This is the latest recevied weather packets stored in our database for station/object W0RMT-13. If no packets are shown the sender has not sent any weather packets the latest 10 day(s).
| Time | Temp. | Humidity | Pressure | Rain* | Wind** | Luminosity | Snow |
|---|---|---|---|---|---|---|---|
| 1777949509 | 9.44° C | 89% | 1011 hPa | 0.76 mm | - | 0 W/m² | - |
| 1777948797 | 10° C | 84% | 1011 hPa | 0.51 mm | - | 0 W/m² | - |
| 1777948191 | 10° C | 81% | 1010.2 hPa | 0 mm | - | 0 W/m² | - |
| 1777947569 | 10° C | 80% | 1010.2 hPa | 0 mm | - | 0 W/m² | - |
| 1777946944 | 10.56° C | 76% | 1010.2 hPa | 0 mm | - | 0 W/m² | - |
| 1777946296 | 10.56° C | 76% | 1010.2 hPa | 0 mm | - | 0 W/m² | - |
| 1777945622 | 11.11° C | 73% | 1010.7 hPa | 0 mm | - | 0 W/m² | - |
| 1777944892 | 12.22° C | 70% | 1010.2 hPa | 0 mm | - | 0 W/m² | - |
| 1777944228 | 13.33° C | 68% | 1010.2 hPa | 0 mm | - | 0 W/m² | - |
| 1777943551 | 13.89° C | 61% | 1010.2 hPa | 0 mm | - | 0 W/m² | - |
| 1777942914 | 13.89° C | 57% | 1009.8 hPa | 0 mm | - | 0 W/m² | - |
| 1777942224 | 14.44° C | 56% | 1009.5 hPa | 0 mm | - | 2 W/m² | - |
| 1777941544 | 14.44° C | 55% | 1009.8 hPa | 0 mm | - | 6 W/m² | - |
| 1777940882 | 15° C | 54% | 1009.8 hPa | 0 mm | - | 20 W/m² | - |
| 1777940192 | 15° C | 54% | 1009.5 hPa | 0 mm | - | 45 W/m² | - |
| 1777939531 | 15° C | 51% | 1009.5 hPa | 0 mm | - | 68 W/m² | - |
| 1777938844 | 15.56° C | 53% | 1009 hPa | 0 mm | - | 58 W/m² | - |
| 1777938169 | 15.56° C | 51% | 1009.5 hPa | 0 mm | - | 67 W/m² | - |
| 1777937492 | 15.56° C | 47% | 1009 hPa | 0 mm | - | 73 W/m² | - |
| 1777936878 | 15.56° C | 48% | 1009 hPa | 0 mm | - | 82 W/m² | - |
| 1777936230 | 15.56° C | 49% | 1009.5 hPa | 0 mm | - | 81 W/m² | - |
| 1777935612 | 15.56° C | 51% | 1009.5 hPa | 0 mm | - | 115 W/m² | - |
| 1777934983 | 16.11° C | 50% | 1009.5 hPa | 0 mm | - | 101 W/m² | - |
| 1777934281 | 16.11° C | 45% | 1009.5 hPa | 0 mm | - | 48 W/m² | - |
| 1777933591 | 16.11° C | 42% | 1009.5 hPa | 0 mm | - | 37 W/m² | - |
* Rain latest hour (hover to see other rain measurements)
** Current wind speed in m/s (hover to see current wind gust speed)